Weather History for Farmington, MO

Change the Weather History Date:

Monday, December 31, 2012

  Actual Average Record
Temperature  
Mean Temperature 32 °F -  
Max Temperature 35 °F 39 °F 66 °F (2004)
Min Temperature 30 °F 24 °F 10 °F (2000)
Degree Days  
Heating Degree Days 32    
Moisture  
Dew Point 28 °F    
Average Humidity 81    
Maximum Humidity 93    
Minimum Humidity 64    
Precipitation  
Precipitation 0.16 in - - ()
Sea Level Pressure  
Sea Level Pressure 30.15 in    
Wind  
Wind Speed 5 mph (South)    
Max Wind Speed 10 mph    
Max Gust Speed -    
Visibility 6 miles    
Events      
Averages and records for this station are not official NWS values.
T = Trace of Precipitation, MM = Missing Value Source: NWS Daily Summary

Daily Weather History Graph

Daily Weather History Graph

Search for Another Location

Airport:

Trip Planner

Search our weather history database for the weather conditions in past years. The results will help you decide how hot, cold, wet, or windy it might be!

Date:

Astronomy

Dec. 31, 2012 Rise Set
Actual Time 7:17 AM CST 4:53 PM CST
Civil Twilight 6:47 AM CST 5:22 PM CST
Nautical Twilight 6:14 AM CST 5:55 PM CST
Astronomical Twilight 5:43 AM CST 6:27 PM CST
Moon 8:19 PM CST (12/31) 9:02 AM CST (12/31)
Length of Visible Light 10h 34m
Length of Day
9h 36m
Waning Gibbous, 90% of the Moon is Illuminated
Dec 31
Waning Gibbous
Jan 4
Last Quarter
Jan 11
New
Jan 18
First Quarter
Jan 26
Full

Hourly Weather History & Observations

Time (CST) Temp. Windchill Dew Point Humidity Pressure Visibility Wind Dir Wind Speed Gust Speed Precip Events Conditions
12:15 AM 30.2 °F 22.6 °F 21.2 °F 69% 30.25 in 10.0 mi South 8.1 mph - N/A   Clear
12:35 AM 30.2 °F 22.6 °F 21.2 °F 69% 30.24 in 10.0 mi South 8.1 mph - N/A   Clear
12:55 AM 30.2 °F 22.6 °F 21.2 °F 69% 30.23 in 10.0 mi South 8.1 mph - N/A   Mostly Cloudy
1:15 AM 30.2 °F 22.6 °F 21.2 °F 69% 30.24 in 10.0 mi South 8.1 mph - N/A   Overcast
1:55 AM 32.0 °F 27.5 °F 21.2 °F 64% 30.26 in 10.0 mi SSW 4.6 mph - N/A   Overcast
2:15 AM 32.0 °F 26.4 °F 21.2 °F 64% 30.26 in 10.0 mi South 5.8 mph - N/A   Scattered Clouds
2:35 AM 32.0 °F 24.8 °F 23.0 °F 69% 30.26 in 10.0 mi South 8.1 mph - N/A   Mostly Cloudy
2:55 AM 32.0 °F 26.4 °F 23.0 °F 69% 30.25 in 10.0 mi South 5.8 mph - N/A   Overcast
3:15 AM 32.0 °F 24.8 °F 23.0 °F 69% 30.25 in 10.0 mi South 8.1 mph - N/A   Mostly Cloudy
3:35 AM 32.0 °F 25.6 °F 24.8 °F 75% 30.25 in 10.0 mi South 6.9 mph - N/A   Mostly Cloudy
3:55 AM 32.0 °F 24.8 °F 24.8 °F 75% 30.24 in 10.0 mi South 8.1 mph - N/A   Overcast
4:15 AM 33.8 °F 30.8 °F 24.8 °F 70% 30.24 in 10.0 mi South 3.5 mph - N/A   Overcast
4:35 AM 33.8 °F - 24.8 °F 70% 30.24 in 10.0 mi Calm Calm - N/A   Overcast
4:55 AM 33.8 °F 30.8 °F 24.8 °F 70% 30.24 in 10.0 mi SSE 3.5 mph - N/A   Overcast
5:15 AM 33.8 °F 28.6 °F 24.8 °F 70% 30.23 in 10.0 mi South 5.8 mph - N/A   Overcast
5:35 AM 33.8 °F 26.4 °F 24.8 °F 70% 30.21 in 10.0 mi South 9.2 mph - N/A   Overcast
5:55 AM 33.8 °F 30.8 °F 24.8 °F 70% 30.20 in 10.0 mi South 3.5 mph - N/A   Overcast
6:15 AM 33.8 °F 27.7 °F 24.8 °F 70% 30.19 in 10.0 mi South 6.9 mph - N/A   Overcast
6:35 AM 33.8 °F 27.0 °F 24.8 °F 70% 30.20 in 10.0 mi SSW 8.1 mph - N/A   Overcast
6:55 AM 33.8 °F 28.6 °F 24.8 °F 70% 30.20 in 10.0 mi SSE 5.8 mph - N/A   Overcast
7:15 AM 32.0 °F 27.5 °F 24.8 °F 75% 30.19 in 10.0 mi South 4.6 mph - N/A   Overcast
7:35 AM 32.0 °F 23.6 °F 24.8 °F 75% 30.19 in 10.0 mi South 10.4 mph - N/A   Overcast
7:55 AM 32.0 °F 24.8 °F 24.8 °F 75% 30.18 in 10.0 mi South 8.1 mph - N/A   Mostly Cloudy
8:15 AM 33.8 °F 27.7 °F 24.8 °F 70% 30.19 in 10.0 mi South 6.9 mph - N/A   Overcast
8:35 AM 33.8 °F 27.7 °F 24.8 °F 70% 30.19 in 10.0 mi SSW 6.9 mph - N/A   Overcast
8:55 AM 33.8 °F 27.0 °F 26.6 °F 75% 30.20 in 6.0 mi South 8.1 mph - N/A   Overcast
9:15 AM 33.8 °F 27.0 °F 26.6 °F 75% 30.19 in 8.0 mi South 8.1 mph - N/A   Overcast
9:35 AM 33.8 °F 26.4 °F 28.4 °F 81% 30.20 in 3.0 mi South 9.2 mph - N/A   Overcast
9:55 AM 33.8 °F 28.6 °F 28.4 °F 81% 30.20 in 5.0 mi South 5.8 mph - N/A   Overcast
10:15 AM 33.8 °F 29.6 °F 28.4 °F 81% 30.20 in 9.0 mi SSW 4.6 mph - N/A   Overcast
10:35 AM 33.8 °F 29.6 °F 30.2 °F 87% 30.19 in 1.2 mi SSW 4.6 mph - N/A   Overcast
10:55 AM 33.8 °F 30.8 °F 30.2 °F 87% 30.18 in 1.8 mi South 3.5 mph - N/A   Overcast
11:15 AM 33.8 °F 29.6 °F 30.2 °F 87% 30.18 in 4.0 mi SSW 4.6 mph - N/A   Overcast
11:35 AM 33.8 °F 29.6 °F 30.2 °F 87% 30.17 in 3.0 mi SSW 4.6 mph - N/A   Overcast
11:55 AM 33.8 °F - 30.2 °F 87% 30.15 in 6.0 mi Calm Calm - 0.01 in   Overcast
12:15 PM 33.8 °F 28.6 °F 30.2 °F 87% 30.15 in 10.0 mi SW 5.8 mph - N/A   Overcast
12:35 PM 33.8 °F 29.6 °F 30.2 °F 87% 30.13 in 3.0 mi SSW 4.6 mph - N/A   Overcast
12:55 PM 33.8 °F 29.6 °F 30.2 °F 87% 30.13 in 9.0 mi South 4.6 mph - N/A   Overcast
1:15 PM 33.8 °F - 30.2 °F 87% 30.11 in 8.0 mi Calm Calm - N/A   Overcast
1:35 PM 35.6 °F 32.8 °F 32.0 °F 87% 30.12 in 10.0 mi WNW 3.5 mph - N/A   Overcast
1:55 PM 35.6 °F 32.8 °F 32.0 °F 87% 30.10 in 9.0 mi West 3.5 mph - 0.01 in   Overcast
2:15 PM 35.6 °F - 32.0 °F 87% 30.10 in 8.0 mi Calm Calm - 0.01 in   Overcast
2:35 PM 35.6 °F - 32.0 °F 87% 30.10 in 6.0 mi Calm Calm - 0.02 in   Overcast
2:55 PM 33.8 °F - 32.0 °F 93% 30.09 in 4.0 mi Calm Calm - 0.03 in   Overcast
3:15 PM 33.8 °F - 32.0 °F 93% 30.10 in 4.0 mi Calm Calm - 0.01 in   Overcast
3:35 PM 33.8 °F - 32.0 °F 93% 30.10 in 2.5 mi Calm Calm - 0.01 in   Overcast
3:55 PM 33.8 °F - 30.2 °F 87% 30.10 in 2.0 mi Calm Calm - 0.02 in   Overcast
4:35 PM 33.8 °F - 32.0 °F 93% 30.09 in 2.5 mi Calm Calm - N/A   Overcast
4:55 PM 33.8 °F 30.8 °F 30.2 °F 87% 30.09 in 2.0 mi SSE 3.5 mph - 0.01 in   Overcast
5:15 PM 33.8 °F 30.8 °F 32.0 °F 93% 30.09 in 2.0 mi SSE 3.5 mph - N/A   Overcast
5:35 PM 33.8 °F 29.6 °F 30.2 °F 87% 30.09 in 2.5 mi SSE 4.6 mph - 0.01 in   Overcast
5:55 PM 33.8 °F - 30.2 °F 87% 30.08 in 2.0 mi Calm Calm - 0.01 in   Overcast
6:15 PM 33.8 °F - 30.2 °F 87% 30.08 in 2.0 mi Calm Calm - 0.01 in   Overcast
6:35 PM 33.8 °F 29.6 °F 30.2 °F 87% 30.07 in 2.5 mi SE 4.6 mph - 0.02 in   Overcast
6:55 PM 33.8 °F - 30.2 °F 87% 30.09 in 1.8 mi Calm Calm - 0.03 in   Overcast
7:15 PM 33.8 °F - 32.0 °F 93% 30.07 in 1.8 mi Calm Calm - 0.01 in   Overcast
7:35 PM 33.8 °F - 30.2 °F 87% 30.06 in 2.5 mi Calm Calm - 0.02 in   Overcast
7:55 PM 33.8 °F - 30.2 °F 87% 30.06 in 2.5 mi Calm Calm - 0.02 in   Overcast
8:15 PM 33.8 °F - 30.2 °F 87% 30.06 in 3.0 mi Calm Calm - N/A   Overcast
8:35 PM 33.8 °F - 30.2 °F 87% 30.06 in 3.0 mi Calm Calm - N/A   Overcast
9:15 PM 33.8 °F - 30.2 °F 87% 30.06 in 0.8 mi Calm Calm - N/A   Overcast
9:35 PM 33.8 °F - 32.0 °F 93% 30.06 in 1.0 mi Calm Calm - 0.01 in   Overcast
9:55 PM 33.8 °F - 32.0 °F 93% 30.06 in 1.8 mi Calm Calm - 0.01 in   Overcast
10:15 PM 33.8 °F - 32.0 °F 93% 30.07 in 1.5 mi Calm Calm - N/A   Overcast
10:35 PM 33.8 °F - 32.0 °F 93% 30.08 in 1.2 mi Calm Calm - N/A   Overcast
10:55 PM 33.8 °F 30.8 °F 32.0 °F 93% 30.07 in 1.5 mi NNE 3.5 mph - N/A   Overcast
11:15 PM 33.8 °F 30.8 °F 30.2 °F 87% 30.07 in 2.5 mi NNE 3.5 mph - 0.01 in   Overcast
11:35 PM 33.8 °F 30.8 °F 30.2 °F 87% 30.08 in 3.0 mi North 3.5 mph - 0.01 in   Overcast
11:55 PM 33.8 °F - 30.2 °F 87% 30.08 in 2.5 mi Calm Calm - 0.01 in   Overcast